TimeCDT,TemperatureF,Dew PointF,Humidity,Sea Level PressureIn,VisibilityMPH,Wind Direction,Wind SpeedMPH,Gust SpeedMPH,PrecipitationIn,Events,Conditions,WindDirDegrees,DateUTC
12:51 AM,39.9,28.0,63,30.33,10.0,North,9.2,-,N/A,,Clear,350,2012-10-27 05:51:00
1:51 AM,39.0,28.9,67,30.33,10.0,North,10.4,-,N/A,,Clear,350,2012-10-27 06:51:00
2:51 AM,37.9,28.0,68,30.32,10.0,North,8.1,-,N/A,,Clear,350,2012-10-27 07:51:00
3:51 AM,37.9,28.0,68,30.30,10.0,North,11.5,-,N/A,,Clear,360,2012-10-27 08:51:00
4:51 AM,36.0,28.0,73,30.31,10.0,North,11.5,-,N/A,,Clear,350,2012-10-27 09:51:00
5:51 AM,35.1,28.0,76,30.33,10.0,NNW,9.2,-,N/A,,Clear,340,2012-10-27 10:51:00
6:51 AM,35.1,27.0,72,30.34,10.0,NNW,6.9,-,N/A,,Clear,340,2012-10-27 11:51:00
7:51 AM,35.1,27.0,72,30.34,10.0,North,6.9,-,N/A,,Clear,350,2012-10-27 12:51:00
8:51 AM,37.4,28.4,70,30.33,10.0,North,10.4,-,N/A,,Partly Cloudy,350,2012-10-27 13:51:00
9:51 AM,39.9,28.9,65,30.36,10.0,North,10.4,-,N/A,,Partly Cloudy,350,2012-10-27 14:51:00
10:51 AM,44.1,30.9,60,30.35,10.0,NNW,11.5,-,N/A,,Scattered Clouds,340,2012-10-27 15:51:00
11:51 AM,46.0,30.9,56,30.32,10.0,North,9.2,-,N/A,,Scattered Clouds,350,2012-10-27 16:51:00
12:51 PM,48.9,33.1,54,30.30,10.0,North,13.8,-,N/A,,Mostly Cloudy,350,2012-10-27 17:51:00
1:51 PM,50.0,32.0,50,30.27,10.0,North,10.4,-,N/A,,Mostly Cloudy,10,2012-10-27 18:51:00
2:51 PM,51.1,32.0,48,30.26,10.0,NNW,9.2,-,N/A,,Mostly Cloudy,340,2012-10-27 19:51:00
3:51 PM,50.0,28.0,43,30.25,10.0,NNE,13.8,-,N/A,,Mostly Cloudy,20,2012-10-27 20:51:00
4:51 PM,50.0,28.0,43,30.25,10.0,North,11.5,-,N/A,,Mostly Cloudy,360,2012-10-27 21:51:00
5:51 PM,48.0,28.0,46,30.25,10.0,North,9.2,-,N/A,,Mostly Cloudy,10,2012-10-27 22:51:00
6:51 PM,46.0,28.9,51,30.27,10.0,North,10.4,-,N/A,,Mostly Cloudy,360,2012-10-27 23:51:00
7:51 PM,42.8,28.4,57,30.24,10.0,North,8.1,-,N/A,,Scattered Clouds,350,2012-10-28 00:51:00
8:51 PM,39.9,28.9,65,30.27,10.0,NNW,6.9,-,N/A,,Clear,340,2012-10-28 01:51:00
9:51 PM,39.9,28.9,65,30.28,10.0,NNW,5.8,-,N/A,,Clear,330,2012-10-28 02:51:00
10:51 PM,39.0,28.9,67,30.27,10.0,North,6.9,-,N/A,,Partly Cloudy,10,2012-10-28 03:51:00
11:51 PM,39.0,28.9,67,30.28,10.0,North,4.6,-,N/A,,Mostly Cloudy,350,2012-10-28 04:51:00